Location: Newark
(42.9858°N, 0.6717°E)
Time: 08:31:59
(UTC+00:00)

S-56A Canister/Altair - Pass Details

Date: 27 November 2019
Orbit: 633 x 2499 km, 38.9° (Epoch: 11 December)

Event Time Altitude Azimuth Distance (km) Brightness Sun altitude
Rises 10:53:03 0° 182° (S) 6,156 13.4 24.8°
Reaches altitude 10° 10:59:49 10° 163° (SSE) 5,124 13.6 25.1°
Maximum altitude 11:06:46 15° 134° (SE) 4,541 12.5 25.3°
Drops below altitude 10° 11:13:10 10° 105° (ESE) 4,690 11.9 25.5°
Sets 11:18:43 0° 85° (E) 5,364 11.9 25.6°
